Regional Weather Roundup
Issued by NWS Glasgow, MT

Home | Current Version | Previous Version | Text Only | Print | Product List | Glossary On
Versions: 1 2 3 4 5 6 7 8 9 10 11 12 13 14 15 16 17 18 19 20 21 22 23 24 25 26 27 28 29 30 31 32 33 34 35 36 37 38 39 40 41 42 43 44 45 46 47 48 49 50
072
ASUS45 KGGW 102315
RWRGGW
HOURLY REGIONAL WEATHER ROUNDUP FOR NORTHEAST MONTANA
NATIONAL WEATHER SERVICE GLASGOW MONTANA
400 PM MST SAT DEC 10 2016

NOTE: "FAIR" INDICATES FEW OR NO CLOUDS BELOW 12,000 FEET WITH NO
SIGNIFICANT WEATHER AND/OR OBSTRUCTIONS TO VISISBILITY.

NORTHEAST MONTANA


CITY           SKY/WX    TMP DP  RH WIND       PRES   REMARKS
GLASGOW        LGT SNOW   2  -3  80 E14       29.83R VSB 3/4 WCI -16
PLENTYWOOD       N/A      2  -1  88 E12G20      N/A  WCI -15
WOLF POINT     SNOW       5  -1  76 E15       29.88F VSB 1/2 WCI -13
JORDAN           N/A     10   6  84 SE10      29.74F WCI  -4
WINNETT          N/A     14  12  92 E5          N/A
SIDNEY         FLURRIES   3  -4  72 E17       29.93S WCI -17
GLENDIVE       LGT SNOW   3  -2  78 SE15      29.82S WCI -15
MALTA            N/A      5   3  91 E5G14       N/A
SCOBEY           N/A      0 -12  57 E12       29.86F WCI -17

FORT PECK REPORTS


CITY           SKY/WX    TMP DP  RH WIND       PRES   REMARKS
FORT PECK        N/A      5   1  83 E20         N/A  WCI -15
THE PINES        N/A      8   5  87 NE2         N/A

SOUTHEAST MONTANA


CITY           SKY/WX    TMP DP  RH WIND       PRES   REMARKS
BILLINGS       CLOUDY    14  11  87 SE6       29.67S
MILES CITY     LGT SNOW  11   4  73 E7        29.75S
BAKER          CLOUDY     2  -4  76 SE26      29.76S WCI -22
LIVINGSTON     LGT SNOW  31  28  89 S3        29.68R FOG

CENTRAL MONTANA


CITY           SKY/WX    TMP DP  RH WIND       PRES   REMARKS
HAVRE          CLOUDY     6   1  80 N5        29.82R
LEWISTOWN      CLOUDY     6   3  87 S8        29.68R
GREAT FALLS    CLEAR      7   1  76 S7        29.73R
CUT BANK       CLEAR      3  -4  72 NW3       29.72R
HELENA         CLEAR     15   7  70 SE3       29.74R
BUTTE          CLOUDY    30  10  43 W7        29.71R
BOZEMAN        CLOUDY    20  17  88 S7        29.73R FOG

WESTERN MONTANA


CITY           SKY/WX    TMP DP  RH WIND       PRES   REMARKS
MISSOULA       CLOUDY    26  19  74 CALM      29.84R
KALISPELL      NOT AVBL

NORTH DAKOTA


CITY           SKY/WX    TMP DP  RH WIND       PRES   REMARKS
WILLISTON      FLURRIES   2  -5  72 SE13      29.97F WCI -15
DICKINSON      CLOUDY    -3  -8  79 E14       29.86F WCI -22
MINOT          CLOUDY    -7 -12  79 E10       30.10F WCI -25
BISMARCK       CLOUDY    -4  -8  83 E13       30.08S WCI -23

SOUTHERN SASKATCHEWAN


CITY           SKY/WX    TMP DP  RH WIND       PRES   REMARKS
REGINA         PTCLDY    -8 -13  77 E13       30.04S WCI -28
ESTEVAN        MOCLDY    -9 -15  77 E16       30.04F WCI -32
SWIFT CURRENT  CLOUDY     1  -2  85 E17       29.82R WCI -19





USA.gov is the U.S. government's official web portal to all federal, state and local government web resources and services.